Time,TemperatureF,DewpointF,PressureIn,WindDirection,WindDirectionDegrees,WindSpeedMPH,WindSpeedGustMPH,Humidity,HourlyPrecipIn,Conditions,Clouds,dailyrainin,SoftwareType,DateUTC
2013-05-03 00:03:00,62.0,39.0,30.33,SE,144,0.0,3.0,42,0.00,,,0.00,,2013-05-03 04:03:00,
2013-05-03 00:13:00,62.0,39.0,30.33,SE,144,0.0,3.0,42,0.00,,,0.00,,2013-05-03 04:13:00,
2013-05-03 00:23:00,61.0,38.0,30.33,SE,144,0.0,2.0,42,0.00,,,0.00,,2013-05-03 04:23:00,
2013-05-03 00:32:00,61.0,38.0,30.33,SE,144,0.0,2.0,43,0.00,,,0.00,,2013-05-03 04:32:00,
2013-05-03 00:43:00,61.0,38.0,30.33,SE,144,0.0,2.0,43,0.00,,,0.00,,2013-05-03 04:43:00,
2013-05-03 00:53:00,61.0,38.0,30.33,SE,144,0.0,2.0,43,0.00,,,0.00,,2013-05-03 04:53:00,
2013-05-03 01:03:00,61.0,39.0,30.33,SE,144,0.0,0.0,44,0.00,,,0.00,,2013-05-03 05:03:00,
2013-05-03 01:12:00,61.0,39.0,30.33,SE,144,0.0,0.0,44,0.00,,,0.00,,2013-05-03 05:12:00,
2013-05-03 01:22:00,61.0,39.0,30.33,SE,145,0.0,2.0,44,0.00,,,0.00,,2013-05-03 05:22:00,
2013-05-03 01:32:00,61.0,39.0,30.33,SSE,152,0.0,2.0,44,0.00,,,0.00,,2013-05-03 05:32:00,
2013-05-03 01:42:00,61.0,39.0,30.33,SSE,152,0.0,2.0,44,0.00,,,0.00,,2013-05-03 05:42:00,
2013-05-03 01:52:00,61.0,38.0,30.32,SSE,152,0.0,0.0,43,0.00,,,0.00,,2013-05-03 05:52:00,
2013-05-03 02:02:00,61.0,38.0,30.33,SSE,152,0.0,0.0,43,0.00,,,0.00,,2013-05-03 06:02:00,
2013-05-03 02:12:00,61.0,38.0,30.33,SSE,152,0.0,0.0,43,0.00,,,0.00,,2013-05-03 06:12:00,
2013-05-03 02:21:00,61.0,38.0,30.32,SSE,153,0.0,2.0,43,0.00,,,0.00,,2013-05-03 06:21:00,
2013-05-03 02:32:00,60.0,37.0,30.32,SSE,153,0.0,0.0,43,0.00,,,0.00,,2013-05-03 06:32:00,
2013-05-03 02:42:00,60.0,37.0,30.32,SSE,153,0.0,0.0,43,0.00,,,0.00,,2013-05-03 06:42:00,
2013-05-03 02:52:00,61.0,38.0,30.32,SSE,153,0.0,0.0,42,0.00,,,0.00,,2013-05-03 06:52:00,
2013-05-03 03:02:00,61.0,38.0,30.32,SSE,153,0.0,1.0,42,0.00,,,0.00,,2013-05-03 07:02:00,
2013-05-03 03:11:00,61.0,38.0,30.32,SSE,153,0.0,1.0,42,0.00,,,0.00,,2013-05-03 07:11:00,
2013-05-03 03:22:00,61.0,37.0,30.32,SSE,153,0.0,0.0,41,0.00,,,0.00,,2013-05-03 07:22:00,
2013-05-03 03:32:00,61.0,36.0,30.32,SSW,210,2.0,4.0,40,0.00,,,0.00,,2013-05-03 07:32:00,
2013-05-03 03:42:00,61.0,36.0,30.32,SSW,210,2.0,4.0,40,0.00,,,0.00,,2013-05-03 07:42:00,
2013-05-03 03:52:00,62.0,38.0,30.32,SSW,212,1.0,5.0,41,0.00,,,0.00,,2013-05-03 07:52:00,
2013-05-03 04:02:00,61.0,38.0,30.32,SW,223,1.0,5.0,42,0.00,,,0.00,,2013-05-03 08:02:00,
2013-05-03 04:12:00,61.0,38.0,30.32,SW,223,1.0,5.0,42,0.00,,,0.00,,2013-05-03 08:12:00,
2013-05-03 04:21:00,61.0,39.0,30.32,SSW,213,1.0,5.0,44,0.00,,,0.00,,2013-05-03 08:21:00,
2013-05-03 04:32:00,61.0,39.0,30.32,West,259,1.0,5.0,44,0.00,,,0.00,,2013-05-03 08:32:00,
2013-05-03 04:42:00,61.0,39.0,30.32,West,259,1.0,5.0,44,0.00,,,0.00,,2013-05-03 08:42:00,
2013-05-03 04:52:00,60.0,39.0,30.32,SW,214,0.0,4.0,46,0.00,,,0.00,,2013-05-03 08:52:00,
2013-05-03 05:01:00,58.0,40.0,30.33,South,181,0.0,2.0,52,0.00,,,0.00,,2013-05-03 09:01:00,
2013-05-03 05:12:00,58.0,40.0,30.33,South,181,0.0,2.0,52,0.00,,,0.00,,2013-05-03 09:12:00,
2013-05-03 05:21:00,56.0,40.0,30.33,South,181,0.0,1.0,55,0.00,,,0.00,,2013-05-03 09:21:00,
2013-05-03 05:33:00,56.0,41.0,30.33,South,181,0.0,2.0,56,0.00,,,0.00,,2013-05-03 09:33:00,
2013-05-03 05:42:00,56.0,41.0,30.33,South,181,0.0,2.0,56,0.00,,,0.00,,2013-05-03 09:42:00,
2013-05-03 05:52:00,56.0,41.0,30.33,South,181,0.0,0.0,56,0.00,,,0.00,,2013-05-03 09:52:00,
2013-05-03 06:03:00,56.0,40.0,30.34,SSW,211,1.0,3.0,55,0.00,,,0.00,,2013-05-03 10:03:00,
2013-05-03 06:13:00,56.0,40.0,30.34,SSW,211,1.0,3.0,55,0.00,,,0.00,,2013-05-03 10:13:00,
2013-05-03 06:22:00,57.0,41.0,30.34,SW,218,0.0,4.0,54,0.00,,,0.00,,2013-05-03 10:22:00,
2013-05-03 06:32:00,57.0,41.0,30.34,SW,218,0.0,0.0,55,0.00,,,0.00,,2013-05-03 10:32:00,
2013-05-03 06:42:00,57.0,41.0,30.34,SW,218,0.0,0.0,55,0.00,,,0.00,,2013-05-03 10:42:00,
2013-05-03 06:52:00,56.0,41.0,30.34,SW,218,0.0,0.0,58,0.00,,,0.00,,2013-05-03 10:52:00,
2013-05-03 07:02:00,54.0,41.0,30.35,SSW,198,1.0,3.0,61,0.00,,,0.00,,2013-05-03 11:02:00,
2013-05-03 07:11:00,54.0,41.0,30.35,SSW,198,1.0,3.0,61,0.00,,,0.00,,2013-05-03 11:11:00,
2013-05-03 07:22:00,54.0,42.0,30.35,SSE,163,0.0,3.0,63,0.00,,,0.00,,2013-05-03 11:22:00,
2013-05-03 07:32:00,55.0,43.0,30.36,SE,143,1.0,3.0,63,0.00,,,0.00,,2013-05-03 11:32:00,
2013-05-03 07:42:00,55.0,43.0,30.36,SE,143,1.0,3.0,63,0.00,,,0.00,,2013-05-03 11:42:00,
2013-05-03 07:52:00,56.0,42.0,30.36,SSE,154,1.0,3.0,60,0.00,,,0.00,,2013-05-03 11:52:00,
2013-05-03 08:02:00,58.0,43.0,30.36,SE,143,1.0,5.0,57,0.00,,,0.00,,2013-05-03 12:02:00,
2013-05-03 08:12:00,58.0,43.0,30.36,SE,143,1.0,5.0,57,0.00,,,0.00,,2013-05-03 12:12:00,
2013-05-03 08:22:00,60.0,43.0,30.37,SSE,153,0.0,6.0,53,0.00,,,0.00,,2013-05-03 12:22:00,
2013-05-03 08:32:00,61.0,43.0,30.37,SE,142,1.0,4.0,51,0.00,,,0.00,,2013-05-03 12:32:00,
2013-05-03 08:42:00,61.0,43.0,30.37,SE,142,1.0,4.0,51,0.00,,,0.00,,2013-05-03 12:42:00,
2013-05-03 08:52:00,63.0,44.0,30.36,SE,142,0.0,3.0,50,0.00,,,0.00,,2013-05-03 12:52:00,
2013-05-03 09:01:00,64.0,43.0,30.36,SE,136,0.0,4.0,46,0.00,,,0.00,,2013-05-03 13:01:00,
2013-05-03 09:11:00,64.0,43.0,30.36,SE,136,0.0,4.0,46,0.00,,,0.00,,2013-05-03 13:11:00,
2013-05-03 09:22:00,66.0,43.0,30.36,WSW,244,0.0,5.0,44,0.00,,,0.00,,2013-05-03 13:22:00,
2013-05-03 09:32:00,68.0,41.0,30.36,South,173,1.0,7.0,38,0.00,,,0.00,,2013-05-03 13:32:00,
2013-05-03 09:42:00,68.0,41.0,30.36,South,173,1.0,7.0,38,0.00,,,0.00,,2013-05-03 13:42:00,
2013-05-03 09:52:00,69.0,40.0,30.36,WSW,239,3.0,7.0,35,0.00,,,0.00,,2013-05-03 13:52:00,
2013-05-03 10:02:00,71.0,40.0,30.36,WSW,257,4.0,11.0,33,0.00,,,0.00,,2013-05-03 14:02:00,
2013-05-03 10:11:00,71.0,40.0,30.36,WSW,257,4.0,11.0,33,0.00,,,0.00,,2013-05-03 14:11:00,
2013-05-03 10:22:00,71.0,40.0,30.36,SSW,198,0.0,13.0,33,0.00,,,0.00,,2013-05-03 14:22:00,
2013-05-03 10:32:00,72.0,41.0,30.35,South,180,1.0,6.0,32,0.00,,,0.00,,2013-05-03 14:32:00,
2013-05-03 10:42:00,72.0,41.0,30.35,South,180,1.0,6.0,32,0.00,,,0.00,,2013-05-03 14:42:00,
2013-05-03 10:52:00,73.0,41.0,30.35,WSW,239,2.0,8.0,31,0.00,,,0.00,,2013-05-03 14:52:00,
2013-05-03 11:01:00,73.0,41.0,30.35,SSE,148,1.0,8.0,31,0.00,,,0.00,,2013-05-03 15:01:00,
2013-05-03 11:11:00,73.0,41.0,30.35,SSE,148,1.0,8.0,31,0.00,,,0.00,,2013-05-03 15:11:00,
2013-05-03 11:22:00,74.0,40.0,30.35,WSW,243,3.0,6.0,29,0.00,,,0.00,,2013-05-03 15:22:00,
2013-05-03 11:32:00,73.0,40.0,30.35,South,180,2.0,7.0,30,0.00,,,0.00,,2013-05-03 15:32:00,
2013-05-03 11:43:00,73.0,40.0,30.35,South,180,2.0,7.0,30,0.00,,,0.00,,2013-05-03 15:43:00,
2013-05-03 11:53:00,74.0,40.0,30.35,SE,132,2.0,8.0,29,0.00,,,0.00,,2013-05-03 15:53:00,
2013-05-03 12:03:00,75.0,41.0,30.35,SW,224,0.0,6.0,30,0.00,,,0.00,,2013-05-03 16:03:00,
2013-05-03 12:13:00,75.0,41.0,30.35,SW,224,0.0,6.0,30,0.00,,,0.00,,2013-05-03 16:13:00,
2013-05-03 12:23:00,76.0,41.0,30.34,NW,316,1.0,3.0,29,0.00,,,0.00,,2013-05-03 16:23:00,
2013-05-03 12:33:00,77.0,43.0,30.33,NE,55,1.0,5.0,30,0.00,,,0.00,,2013-05-03 16:33:00,
2013-05-03 12:42:00,77.0,43.0,30.33,NE,55,1.0,5.0,30,0.00,,,0.00,,2013-05-03 16:42:00,
2013-05-03 12:52:00,76.0,43.0,30.33,East,86,2.0,6.0,31,0.00,,,0.00,,2013-05-03 16:52:00,
2013-05-03 13:02:00,76.0,44.0,30.33,ESE,118,1.0,7.0,32,0.00,,,0.00,,2013-05-03 17:02:00,
2013-05-03 13:12:00,76.0,44.0,30.33,ESE,118,1.0,7.0,32,0.00,,,0.00,,2013-05-03 17:12:00,
2013-05-03 13:23:00,76.0,45.0,30.32,ENE,77,1.0,7.0,33,0.00,,,0.00,,2013-05-03 17:23:00,
2013-05-03 13:32:00,76.0,45.0,30.32,ENE,77,1.0,7.0,33,0.00,,,0.00,,2013-05-03 17:32:00,
2013-05-03 13:42:00,76.0,45.0,30.32,ENE,77,1.0,7.0,33,0.00,,,0.00,,2013-05-03 17:42:00,
2013-05-03 13:52:00,77.0,46.0,30.32,ENE,63,2.0,10.0,33,0.00,,,0.00,,2013-05-03 17:52:00,
2013-05-03 14:01:00,76.0,45.0,30.32,East,85,3.0,13.0,33,0.00,,,0.00,,2013-05-03 18:01:00,
2013-05-03 14:12:00,76.0,45.0,30.32,East,85,3.0,13.0,33,0.00,,,0.00,,2013-05-03 18:12:00,
2013-05-03 14:22:00,76.0,45.0,30.31,ESE,115,4.0,10.0,33,0.00,,,0.00,,2013-05-03 18:22:00,
2013-05-03 14:32:00,76.0,46.0,30.31,ESE,107,3.0,11.0,35,0.00,,,0.00,,2013-05-03 18:32:00,
2013-05-03 14:42:00,76.0,46.0,30.31,ESE,107,3.0,11.0,35,0.00,,,0.00,,2013-05-03 18:42:00,
2013-05-03 14:51:00,76.0,45.0,30.31,ENE,68,5.0,11.0,33,0.00,,,0.00,,2013-05-03 18:51:00,
2013-05-03 15:01:00,76.0,44.0,30.30,SE,130,5.0,11.0,32,0.00,,,0.00,,2013-05-03 19:01:00,
2013-05-03 15:11:00,76.0,44.0,30.30,SE,130,5.0,11.0,32,0.00,,,0.00,,2013-05-03 19:11:00,
2013-05-03 15:21:00,76.0,44.0,30.30,East,101,4.0,10.0,32,0.00,,,0.00,,2013-05-03 19:21:00,
2013-05-03 15:32:00,76.0,44.0,30.29,East,88,3.0,10.0,32,0.00,,,0.00,,2013-05-03 19:32:00,
2013-05-03 15:42:00,76.0,44.0,30.29,East,88,3.0,10.0,32,0.00,,,0.00,,2013-05-03 19:42:00,
2013-05-03 15:52:00,76.0,45.0,30.29,East,80,3.0,12.0,33,0.00,,,0.00,,2013-05-03 19:52:00,
2013-05-03 16:02:00,76.0,43.0,30.28,SE,126,3.0,12.0,31,0.00,,,0.00,,2013-05-03 20:02:00,
2013-05-03 16:12:00,76.0,43.0,30.28,SE,126,3.0,12.0,31,0.00,,,0.00,,2013-05-03 20:12:00,
2013-05-03 16:21:00,76.0,42.0,30.28,East,97,2.0,13.0,30,0.00,,,0.00,,2013-05-03 20:21:00,
2013-05-03 16:32:00,76.0,42.0,30.27,ESE,121,3.0,10.0,30,0.00,,,0.00,,2013-05-03 20:32:00,
2013-05-03 16:42:00,76.0,42.0,30.27,ESE,121,3.0,10.0,30,0.00,,,0.00,,2013-05-03 20:42:00,
2013-05-03 16:52:00,76.0,43.0,30.27,SSE,153,4.0,16.0,31,0.00,,,0.00,,2013-05-03 20:52:00,
2013-05-03 17:02:00,75.0,42.0,30.27,ESE,117,4.0,12.0,31,0.00,,,0.00,,2013-05-03 21:02:00,
2013-05-03 17:11:00,75.0,42.0,30.27,ESE,117,4.0,12.0,31,0.00,,,0.00,,2013-05-03 21:11:00,
2013-05-03 17:22:00,75.0,42.0,30.27,East,92,4.0,12.0,31,0.00,,,0.00,,2013-05-03 21:22:00,
2013-05-03 17:33:00,75.0,43.0,30.27,ESE,121,3.0,9.0,32,0.00,,,0.00,,2013-05-03 21:33:00,
2013-05-03 17:42:00,75.0,43.0,30.27,ESE,121,3.0,9.0,32,0.00,,,0.00,,2013-05-03 21:42:00,
2013-05-03 17:52:00,75.0,42.0,30.27,East,91,3.0,12.0,31,0.00,,,0.00,,2013-05-03 21:52:00,
2013-05-03 18:03:00,75.0,42.0,30.27,ESE,115,4.0,12.0,31,0.00,,,0.00,,2013-05-03 22:03:00,
2013-05-03 18:13:00,75.0,42.0,30.27,ESE,115,4.0,12.0,31,0.00,,,0.00,,2013-05-03 22:13:00,
2013-05-03 18:22:00,75.0,43.0,30.27,ESE,109,6.0,10.0,32,0.00,,,0.00,,2013-05-03 22:22:00,
2013-05-03 18:32:00,74.0,42.0,30.27,SSE,157,4.0,11.0,32,0.00,,,0.00,,2013-05-03 22:32:00,
2013-05-03 18:42:00,74.0,42.0,30.27,SSE,157,4.0,11.0,32,0.00,,,0.00,,2013-05-03 22:42:00,
2013-05-03 18:52:00,74.0,43.0,30.27,SE,128,1.0,5.0,33,0.00,,,0.00,,2013-05-03 22:52:00,
2013-05-03 19:02:00,74.0,44.0,30.27,ESE,111,1.0,6.0,34,0.00,,,0.00,,2013-05-03 23:02:00,
2013-05-03 19:11:00,74.0,44.0,30.27,ESE,111,1.0,6.0,34,0.00,,,0.00,,2013-05-03 23:11:00,
2013-05-03 19:22:00,72.0,45.0,30.27,ENE,61,1.0,6.0,38,0.00,,,0.00,,2013-05-03 23:22:00,
2013-05-03 19:32:00,71.0,44.0,30.27,ESE,106,1.0,5.0,38,0.00,,,0.00,,2013-05-03 23:32:00,
2013-05-03 19:41:00,71.0,44.0,30.27,ESE,106,1.0,5.0,38,0.00,,,0.00,,2013-05-03 23:41:00,
2013-05-03 19:52:00,70.0,44.0,30.27,NE,42,0.0,8.0,39,0.00,,,0.00,,2013-05-03 23:52:00,
2013-05-03 20:01:00,69.0,42.0,30.27,NE,49,1.0,8.0,38,0.00,,,0.00,,2013-05-04 00:01:00,
2013-05-03 20:11:00,69.0,42.0,30.27,NE,49,1.0,8.0,38,0.00,,,0.00,,2013-05-04 00:11:00,
2013-05-03 20:23:00,68.0,42.0,30.27,ENE,57,2.0,5.0,39,0.00,,,0.00,,2013-05-04 00:23:00,
2013-05-03 20:32:00,67.0,42.0,30.28,ENE,59,0.0,5.0,40,0.00,,,0.00,,2013-05-04 00:32:00,
2013-05-03 20:42:00,67.0,42.0,30.28,ENE,59,0.0,5.0,40,0.00,,,0.00,,2013-05-04 00:42:00,
2013-05-03 20:52:00,67.0,43.0,30.28,ENE,61,0.0,1.0,41,0.00,,,0.00,,2013-05-04 00:52:00,
2013-05-03 21:01:00,66.0,42.0,30.28,ENE,76,0.0,3.0,42,0.00,,,0.00,,2013-05-04 01:01:00,
2013-05-03 21:11:00,66.0,42.0,30.28,ENE,76,0.0,3.0,42,0.00,,,0.00,,2013-05-04 01:11:00,
2013-05-03 21:21:00,65.0,43.0,30.28,ESE,112,0.0,5.0,44,0.00,,,0.00,,2013-05-04 01:21:00,
2013-05-03 21:32:00,64.0,43.0,30.29,East,80,0.0,2.0,46,0.00,,,0.00,,2013-05-04 01:32:00,
2013-05-03 21:42:00,64.0,43.0,30.29,East,80,0.0,2.0,46,0.00,,,0.00,,2013-05-04 01:42:00,
2013-05-03 21:52:00,64.0,43.0,30.29,East,90,0.0,3.0,47,0.00,,,0.00,,2013-05-04 01:52:00,
2013-05-03 22:02:00,63.0,42.0,30.29,East,91,1.0,4.0,47,0.00,,,0.00,,2013-05-04 02:02:00,
2013-05-03 22:11:00,63.0,42.0,30.29,East,91,1.0,4.0,47,0.00,,,0.00,,2013-05-04 02:11:00,
2013-05-03 22:21:00,64.0,44.0,30.29,ESE,102,0.0,9.0,48,0.00,,,0.00,,2013-05-04 02:21:00,
2013-05-03 22:32:00,64.0,44.0,30.29,East,97,0.0,5.0,48,0.00,,,0.00,,2013-05-04 02:32:00,
2013-05-03 22:42:00,64.0,44.0,30.29,East,97,0.0,5.0,48,0.00,,,0.00,,2013-05-04 02:42:00,
2013-05-03 22:52:00,64.0,44.0,30.29,ESE,121,0.0,4.0,48,0.00,,,0.00,,2013-05-04 02:52:00,
2013-05-03 23:02:00,63.0,43.0,30.29,East,101,0.0,4.0,48,0.00,,,0.00,,2013-05-04 03:02:00,
2013-05-03 23:11:00,63.0,43.0,30.29,East,101,0.0,4.0,48,0.00,,,0.00,,2013-05-04 03:11:00,
2013-05-03 23:22:00,63.0,44.0,30.29,East,88,2.0,4.0,49,0.00,,,0.00,,2013-05-04 03:22:00,
2013-05-03 23:33:00,63.0,44.0,30.28,ESE,109,0.0,4.0,49,0.00,,,0.00,,2013-05-04 03:33:00,
2013-05-03 23:43:00,63.0,44.0,30.28,ESE,109,0.0,4.0,49,0.00,,,0.00,,2013-05-04 03:43:00,
2013-05-03 23:52:00,63.0,44.0,30.28,ESE,116,0.0,3.0,50,0.00,,,0.00,,2013-05-04 03:52:00,